#datetime,building,power
2024-01-08T00:00:00,axn,29.59
2024-01-08T00:01:00,axn,29.46
2024-01-08T00:02:00,axn,29.81
2024-01-08T00:03:00,axn,28.91
2024-01-08T00:04:00,axn,28.88
2024-01-08T00:05:00,axn,29.31
2024-01-08T00:06:00,axn,28.87
2024-01-08T00:07:00,axn,29.06
2024-01-08T00:08:00,axn,29.05
2024-01-08T00:09:00,axn,28.93
2024-01-08T00:10:00,axn,29.07
2024-01-08T00:11:00,axn,29.15
2024-01-08T00:12:00,axn,29.52
2024-01-08T00:13:00,axn,29.22
2024-01-08T00:14:00,axn,29.43
2024-01-08T00:15:00,axn,29.21
2024-01-08T00:16:00,axn,29.27
2024-01-08T00:17:00,axn,29.13
2024-01-08T00:18:00,axn,29.21
2024-01-08T00:19:00,axn,29.10
2024-01-08T00:20:00,axn,29.54
2024-01-08T00:21:00,axn,29.43
2024-01-08T00:22:00,axn,29.53
2024-01-08T00:23:00,axn,29.42
2024-01-08T00:24:00,axn,29.46
2024-01-08T00:25:00,axn,29.46
2024-01-08T00:26:00,axn,29.96
2024-01-08T00:27:00,axn,29.60
2024-01-08T00:28:00,axn,29.92
2024-01-08T00:29:00,axn,29.86
2024-01-08T00:30:00,axn,29.96
2024-01-08T00:31:00,axn,29.95
2024-01-08T00:32:00,axn,29.81
2024-01-08T00:33:00,axn,29.84
2024-01-08T00:34:00,axn,29.82
2024-01-08T00:35:00,axn,29.65
2024-01-08T00:36:00,axn,29.87
2024-01-08T00:37:00,axn,29.91
2024-01-08T00:38:00,axn,29.66
2024-01-08T00:39:00,axn,29.72
2024-01-08T00:40:00,axn,30.11
2024-01-08T00:41:00,axn,30.19
2024-01-08T00:42:00,axn,29.78
2024-01-08T00:43:00,axn,29.99
2024-01-08T00:44:00,axn,29.60
2024-01-08T00:45:00,axn,29.59
2024-01-08T00:46:00,axn,29.67
2024-01-08T00:47:00,axn,29.24
2024-01-08T00:48:00,axn,30.37
2024-01-08T00:49:00,axn,29.36
2024-01-08T00:50:00,axn,29.35
2024-01-08T00:51:00,axn,29.43
2024-01-08T00:52:00,axn,29.43
2024-01-08T00:53:00,axn,29.28
2024-01-08T00:54:00,axn,29.26
2024-01-08T00:55:00,axn,29.31
2024-01-08T00:56:00,axn,29.41
2024-01-08T00:57:00,axn,29.57
2024-01-08T00:58:00,axn,29.45
2024-01-08T00:59:00,axn,32.35
2024-01-08T01:00:00,axn,29.53
2024-01-08T01:01:00,axn,29.75
2024-01-08T01:02:00,axn,29.65
2024-01-08T01:03:00,axn,29.60
2024-01-08T01:04:00,axn,29.60
2024-01-08T01:05:00,axn,29.60
2024-01-08T01:06:00,axn,29.32
2024-01-08T01:07:00,axn,29.28
2024-01-08T01:08:00,axn,29.32
2024-01-08T01:09:00,axn,29.47
2024-01-08T01:10:00,axn,29.48
2024-01-08T01:11:00,axn,29.45
2024-01-08T01:12:00,axn,29.34
2024-01-08T01:13:00,axn,29.22
2024-01-08T01:14:00,axn,29.68
2024-01-08T01:15:00,axn,30.37
2024-01-08T01:16:00,axn,29.77
2024-01-08T01:17:00,axn,29.71
2024-01-08T01:18:00,axn,29.78
2024-01-08T01:19:00,axn,29.61
2024-01-08T01:20:00,axn,30.04
2024-01-08T01:21:00,axn,35.10
2024-01-08T01:22:00,axn,30.06
2024-01-08T01:23:00,axn,29.80
2024-01-08T01:24:00,axn,29.75
2024-01-08T01:25:00,axn,29.95
2024-01-08T01:26:00,axn,29.79
2024-01-08T01:27:00,axn,30.07
2024-01-08T01:28:00,axn,30.07
2024-01-08T01:29:00,axn,29.95
2024-01-08T01:30:00,axn,30.04
2024-01-08T01:31:00,axn,30.07
2024-01-08T01:32:00,axn,30.32
2024-01-08T01:33:00,axn,29.72
2024-01-08T01:34:00,axn,29.88
2024-01-08T01:35:00,axn,29.72
2024-01-08T01:36:00,axn,29.78
2024-01-08T01:37:00,axn,29.81
2024-01-08T01:38:00,axn,29.78
2024-01-08T01:39:00,axn,30.55
2024-01-08T01:40:00,axn,29.91
2024-01-08T01:41:00,axn,29.95
2024-01-08T01:42:00,axn,29.85
2024-01-08T01:43:00,axn,29.99
2024-01-08T01:44:00,axn,29.78
2024-01-08T01:45:00,axn,30.04
2024-01-08T01:46:00,axn,30.14
2024-01-08T01:47:00,axn,29.75
2024-01-08T01:48:00,axn,29.82
2024-01-08T01:49:00,axn,29.91
2024-01-08T01:50:00,axn,29.82
2024-01-08T01:51:00,axn,29.83
2024-01-08T01:52:00,axn,29.83
2024-01-08T01:53:00,axn,29.48
2024-01-08T01:54:00,axn,29.44
2024-01-08T01:55:00,axn,29.60
2024-01-08T01:56:00,axn,29.52
2024-01-08T01:57:00,axn,29.79
2024-01-08T01:58:00,axn,28.97
2024-01-08T01:59:00,axn,29.19
2024-01-08T02:00:00,axn,29.05
2024-01-08T02:01:00,axn,29.03
2024-01-08T02:02:00,axn,28.96
2024-01-08T02:03:00,axn,28.90
2024-01-08T02:04:00,axn,28.70
2024-01-08T02:05:00,axn,28.95
2024-01-08T02:06:00,axn,28.93
2024-01-08T02:07:00,axn,28.68
2024-01-08T02:08:00,axn,28.62
2024-01-08T02:09:00,axn,28.51
2024-01-08T02:10:00,axn,28.67
2024-01-08T02:11:00,axn,28.64
2024-01-08T02:12:00,axn,28.70
2024-01-08T02:13:00,axn,28.70
2024-01-08T02:14:00,axn,29.07
2024-01-08T02:15:00,axn,28.61
2024-01-08T02:16:00,axn,28.65
2024-01-08T02:17:00,axn,28.75
2024-01-08T02:18:00,axn,28.61
2024-01-08T02:19:00,axn,28.88
2024-01-08T02:20:00,axn,28.79
2024-01-08T02:21:00,axn,28.70
2024-01-08T02:22:00,axn,28.75
2024-01-08T02:23:00,axn,28.64
2024-01-08T02:24:00,axn,28.82
2024-01-08T02:25:00,axn,28.59
2024-01-08T02:26:00,axn,28.75
2024-01-08T02:27:00,axn,28.55
2024-01-08T02:28:00,axn,28.50
2024-01-08T02:29:00,axn,28.71
2024-01-08T02:30:00,axn,29.16
2024-01-08T02:31:00,axn,28.52
2024-01-08T02:32:00,axn,28.49
2024-01-08T02:33:00,axn,28.38
2024-01-08T02:34:00,axn,28.48
2024-01-08T02:35:00,axn,28.44
2024-01-08T02:36:00,axn,28.45
2024-01-08T02:37:00,axn,28.33
2024-01-08T02:38:00,axn,28.95
2024-01-08T02:39:00,axn,28.63
2024-01-08T02:40:00,axn,28.62
2024-01-08T02:41:00,axn,28.60
2024-01-08T02:42:00,axn,28.71
2024-01-08T02:43:00,axn,28.56
2024-01-08T02:44:00,axn,28.61
2024-01-08T02:45:00,axn,28.52
2024-01-08T02:46:00,axn,28.42
2024-01-08T02:47:00,axn,28.53
2024-01-08T02:48:00,axn,28.46
2024-01-08T02:49:00,axn,28.57
2024-01-08T02:50:00,axn,28.81
2024-01-08T02:51:00,axn,28.74
2024-01-08T02:52:00,axn,28.68
2024-01-08T02:53:00,axn,28.77
2024-01-08T02:54:00,axn,28.70
2024-01-08T02:55:00,axn,28.67
2024-01-08T02:56:00,axn,28.59
2024-01-08T02:57:00,axn,29.47
2024-01-08T02:58:00,axn,28.79
2024-01-08T02:59:00,axn,29.09
2024-01-08T03:00:00,axn,29.34
2024-01-08T03:01:00,axn,28.82
2024-01-08T03:02:00,axn,29.21
2024-01-08T03:03:00,axn,28.81
2024-01-08T03:04:00,axn,29.18
2024-01-08T03:05:00,axn,28.69
2024-01-08T03:06:00,axn,29.58
2024-01-08T03:07:00,axn,28.72
2024-01-08T03:08:00,axn,28.54
2024-01-08T03:09:00,axn,28.48
2024-01-08T03:10:00,axn,28.72
2024-01-08T03:11:00,axn,28.86
2024-01-08T03:12:00,axn,28.73
2024-01-08T03:13:00,axn,28.83
2024-01-08T03:14:00,axn,29.24
2024-01-08T03:15:00,axn,28.98
2024-01-08T03:16:00,axn,43.61
2024-01-08T03:17:00,axn,43.46
2024-01-08T03:18:00,axn,43.11
2024-01-08T03:19:00,axn,43.18
2024-01-08T03:20:00,axn,43.48
2024-01-08T03:21:00,axn,29.40
2024-01-08T03:22:00,axn,29.65
2024-01-08T03:23:00,axn,29.61
2024-01-08T03:24:00,axn,29.13
2024-01-08T03:25:00,axn,28.77
2024-01-08T03:26:00,axn,28.75
2024-01-08T03:27:00,axn,28.77
2024-01-08T03:28:00,axn,28.35
2024-01-08T03:29:00,axn,28.76
2024-01-08T03:30:00,axn,28.61
2024-01-08T03:31:00,axn,28.57
2024-01-08T03:32:00,axn,28.59
2024-01-08T03:33:00,axn,33.12
2024-01-08T03:34:00,axn,33.01
2024-01-08T03:35:00,axn,32.91
2024-01-08T03:36:00,axn,33.07
2024-01-08T03:37:00,axn,28.76
2024-01-08T03:38:00,axn,28.49
2024-01-08T03:39:00,axn,28.58
2024-01-08T03:40:00,axn,28.90
2024-01-08T03:41:00,axn,30.84
2024-01-08T03:42:00,axn,28.70
2024-01-08T03:43:00,axn,28.48
2024-01-08T03:44:00,axn,28.40
2024-01-08T03:45:00,axn,28.36
2024-01-08T03:46:00,axn,28.75
2024-01-08T03:47:00,axn,28.44
2024-01-08T03:48:00,axn,28.32
2024-01-08T03:49:00,axn,28.62
2024-01-08T03:50:00,axn,28.40
2024-01-08T03:51:00,axn,28.45
2024-01-08T03:52:00,axn,28.35
2024-01-08T03:53:00,axn,28.49
2024-01-08T03:54:00,axn,28.63
2024-01-08T03:55:00,axn,28.49
2024-01-08T03:56:00,axn,28.39
2024-01-08T03:57:00,axn,28.42
2024-01-08T03:58:00,axn,28.50
2024-01-08T03:59:00,axn,28.56
2024-01-08T04:00:00,axn,28.73
2024-01-08T04:01:00,axn,28.93
2024-01-08T04:02:00,axn,28.49
2024-01-08T04:03:00,axn,28.47
2024-01-08T04:04:00,axn,28.50
2024-01-08T04:05:00,axn,32.08
2024-01-08T04:06:00,axn,31.61
2024-01-08T04:07:00,axn,28.62
2024-01-08T04:08:00,axn,28.54
2024-01-08T04:09:00,axn,28.51
2024-01-08T04:10:00,axn,29.01
2024-01-08T04:11:00,axn,28.35
2024-01-08T04:12:00,axn,28.44
2024-01-08T04:13:00,axn,28.29
2024-01-08T04:14:00,axn,28.64
2024-01-08T04:15:00,axn,39.76
2024-01-08T04:16:00,axn,38.65
2024-01-08T04:17:00,axn,38.44
2024-01-08T04:18:00,axn,38.14
2024-01-08T04:19:00,axn,28.29
2024-01-08T04:20:00,axn,28.40
2024-01-08T04:21:00,axn,28.30
2024-01-08T04:22:00,axn,28.26
2024-01-08T04:23:00,axn,28.13
2024-01-08T04:24:00,axn,28.63
2024-01-08T04:25:00,axn,28.57
2024-01-08T04:26:00,axn,28.61
2024-01-08T04:27:00,axn,28.74
2024-01-08T04:28:00,axn,28.63
2024-01-08T04:29:00,axn,28.77
2024-01-08T04:30:00,axn,28.51
2024-01-08T04:31:00,axn,28.41
2024-01-08T04:32:00,axn,28.34
2024-01-08T04:33:00,axn,28.23
2024-01-08T04:34:00,axn,28.13
2024-01-08T04:35:00,axn,28.20
2024-01-08T04:36:00,axn,28.56
2024-01-08T04:37:00,axn,28.41
2024-01-08T04:38:00,axn,28.46
2024-01-08T04:39:00,axn,28.26
2024-01-08T04:40:00,axn,28.21
2024-01-08T04:41:00,axn,27.97
2024-01-08T04:42:00,axn,28.02
2024-01-08T04:43:00,axn,27.93
2024-01-08T04:44:00,axn,27.89
2024-01-08T04:45:00,axn,28.08
2024-01-08T04:46:00,axn,45.30
2024-01-08T04:47:00,axn,28.18
2024-01-08T04:48:00,axn,27.93
2024-01-08T04:49:00,axn,28.20
2024-01-08T04:50:00,axn,28.06
2024-01-08T04:51:00,axn,27.73
2024-01-08T04:52:00,axn,28.27
2024-01-08T04:53:00,axn,28.36
2024-01-08T04:54:00,axn,28.53
2024-01-08T04:55:00,axn,28.32
2024-01-08T04:56:00,axn,28.38
2024-01-08T04:57:00,axn,34.12
2024-01-08T04:58:00,axn,34.13
2024-01-08T04:59:00,axn,34.15
2024-01-08T05:00:00,axn,33.93
2024-01-08T05:01:00,axn,27.53
2024-01-08T05:02:00,axn,27.62
2024-01-08T05:03:00,axn,27.64
2024-01-08T05:04:00,axn,27.79
2024-01-08T05:05:00,axn,28.12
2024-01-08T05:06:00,axn,28.27
2024-01-08T05:07:00,axn,28.38
2024-01-08T05:08:00,axn,29.22
2024-01-08T05:09:00,axn,28.57
2024-01-08T05:10:00,axn,29.51
2024-01-08T05:11:00,axn,29.54
2024-01-08T05:12:00,axn,29.42
2024-01-08T05:13:00,axn,30.90
2024-01-08T05:14:00,axn,30.30
2024-01-08T05:15:00,axn,30.37
2024-01-08T05:16:00,axn,30.62
2024-01-08T05:17:00,axn,30.29
2024-01-08T05:18:00,axn,30.38
2024-01-08T05:19:00,axn,30.15
2024-01-08T05:20:00,axn,30.66
2024-01-08T05:21:00,axn,31.49
2024-01-08T05:22:00,axn,31.43
2024-01-08T05:23:00,axn,31.31
2024-01-08T05:24:00,axn,31.11
2024-01-08T05:25:00,axn,31.06
2024-01-08T05:26:00,axn,30.96
2024-01-08T05:27:00,axn,31.12
2024-01-08T05:28:00,axn,30.45
2024-01-08T05:29:00,axn,30.39
2024-01-08T05:30:00,axn,30.61
2024-01-08T05:31:00,axn,31.48
2024-01-08T05:32:00,axn,31.73
2024-01-08T05:33:00,axn,30.99
2024-01-08T05:34:00,axn,31.21
2024-01-08T05:35:00,axn,30.31
2024-01-08T05:36:00,axn,30.31
2024-01-08T05:37:00,axn,30.72
2024-01-08T05:38:00,axn,30.95
2024-01-08T05:39:00,axn,30.96
2024-01-08T05:40:00,axn,31.04
2024-01-08T05:41:00,axn,31.04
2024-01-08T05:42:00,axn,31.18
2024-01-08T05:43:00,axn,31.03
2024-01-08T05:44:00,axn,31.08
2024-01-08T05:45:00,axn,30.87
2024-01-08T05:46:00,axn,30.90
2024-01-08T05:47:00,axn,30.78
2024-01-08T05:48:00,axn,30.86
2024-01-08T05:49:00,axn,30.92
2024-01-08T05:50:00,axn,30.76
2024-01-08T05:51:00,axn,30.91
2024-01-08T05:52:00,axn,30.84
2024-01-08T05:53:00,axn,30.33
2024-01-08T05:54:00,axn,29.30
2024-01-08T05:55:00,axn,39.95
2024-01-08T05:56:00,axn,29.09
2024-01-08T05:57:00,axn,29.17
2024-01-08T05:58:00,axn,29.46
2024-01-08T05:59:00,axn,29.52
2024-01-08T06:00:00,axn,30.85
2024-01-08T06:01:00,axn,29.59
2024-01-08T06:02:00,axn,29.32
2024-01-08T06:03:00,axn,29.41
2024-01-08T06:04:00,axn,29.43
2024-01-08T06:05:00,axn,29.16
2024-01-08T06:06:00,axn,29.19
2024-01-08T06:07:00,axn,29.01
2024-01-08T06:08:00,axn,29.08
2024-01-08T06:09:00,axn,29.16
2024-01-08T06:10:00,axn,28.96
2024-01-08T06:11:00,axn,28.85
2024-01-08T06:12:00,axn,28.82
2024-01-08T06:13:00,axn,29.07
2024-01-08T06:14:00,axn,29.03
2024-01-08T06:15:00,axn,29.77
2024-01-08T06:16:00,axn,29.50
2024-01-08T06:17:00,axn,29.32
2024-01-08T06:18:00,axn,28.88
2024-01-08T06:19:00,axn,29.12
2024-01-08T06:20:00,axn,29.02
2024-01-08T06:21:00,axn,29.66
2024-01-08T06:22:00,axn,32.12
2024-01-08T06:23:00,axn,35.02
2024-01-08T06:24:00,axn,35.68
2024-01-08T06:25:00,axn,36.17
2024-01-08T06:26:00,axn,35.90
2024-01-08T06:27:00,axn,35.47
2024-01-08T06:28:00,axn,35.65
2024-01-08T06:29:00,axn,35.77
2024-01-08T06:30:00,axn,35.62
2024-01-08T06:31:00,axn,35.64
2024-01-08T06:32:00,axn,35.29
2024-01-08T06:33:00,axn,36.10
2024-01-08T06:34:00,axn,35.43
2024-01-08T06:35:00,axn,35.52
2024-01-08T06:36:00,axn,35.63
2024-01-08T06:37:00,axn,35.92
2024-01-08T06:38:00,axn,35.89
2024-01-08T06:39:00,axn,35.23
2024-01-08T06:40:00,axn,34.64
2024-01-08T06:41:00,axn,35.01
2024-01-08T06:42:00,axn,34.98
2024-01-08T06:43:00,axn,34.58
2024-01-08T06:44:00,axn,34.05
2024-01-08T06:45:00,axn,34.41
2024-01-08T06:46:00,axn,34.17
2024-01-08T06:47:00,axn,33.77
2024-01-08T06:48:00,axn,33.37
2024-01-08T06:49:00,axn,34.15
2024-01-08T06:50:00,axn,48.03
2024-01-08T06:51:00,axn,47.69
2024-01-08T06:52:00,axn,47.51
2024-01-08T06:53:00,axn,48.00
2024-01-08T06:54:00,axn,48.34
2024-01-08T06:55:00,axn,33.45
2024-01-08T06:56:00,axn,33.63
2024-01-08T06:57:00,axn,33.33
2024-01-08T06:58:00,axn,33.59
2024-01-08T06:59:00,axn,33.24
2024-01-08T07:00:00,axn,44.94
2024-01-08T07:01:00,axn,33.67
2024-01-08T07:02:00,axn,35.91
2024-01-08T07:03:00,axn,35.45
2024-01-08T07:04:00,axn,34.91
2024-01-08T07:05:00,axn,35.35
2024-01-08T07:06:00,axn,35.10
2024-01-08T07:07:00,axn,35.65
2024-01-08T07:08:00,axn,36.14
2024-01-08T07:09:00,axn,35.92
2024-01-08T07:10:00,axn,36.41
2024-01-08T07:11:00,axn,36.12
2024-01-08T07:12:00,axn,35.80
2024-01-08T07:13:00,axn,35.98
2024-01-08T07:14:00,axn,36.48
2024-01-08T07:15:00,axn,36.69
2024-01-08T07:16:00,axn,36.02
2024-01-08T07:17:00,axn,35.63
2024-01-08T07:18:00,axn,35.53
2024-01-08T07:19:00,axn,36.30
2024-01-08T07:20:00,axn,48.40
2024-01-08T07:21:00,axn,36.63
2024-01-08T07:22:00,axn,36.98
2024-01-08T07:23:00,axn,36.75
2024-01-08T07:24:00,axn,36.51
2024-01-08T07:25:00,axn,36.47
2024-01-08T07:26:00,axn,37.48
2024-01-08T07:27:00,axn,38.09
2024-01-08T07:28:00,axn,36.89
2024-01-08T07:29:00,axn,36.64
2024-01-08T07:30:00,axn,37.02
2024-01-08T07:31:00,axn,37.46
2024-01-08T07:32:00,axn,37.44
2024-01-08T07:33:00,axn,37.26
2024-01-08T07:34:00,axn,37.48
2024-01-08T07:35:00,axn,37.69
2024-01-08T07:36:00,axn,37.03
2024-01-08T07:37:00,axn,37.65
2024-01-08T07:38:00,axn,37.36
2024-01-08T07:39:00,axn,35.35
2024-01-08T07:40:00,axn,35.32
2024-01-08T07:41:00,axn,34.41
2024-01-08T07:42:00,axn,34.16
2024-01-08T07:43:00,axn,34.24
2024-01-08T07:44:00,axn,35.34
2024-01-08T07:45:00,axn,36.30
2024-01-08T07:46:00,axn,34.69
2024-01-08T07:47:00,axn,35.00
2024-01-08T07:48:00,axn,34.50
2024-01-08T07:49:00,axn,34.82
2024-01-08T07:50:00,axn,34.96
2024-01-08T07:51:00,axn,34.79
2024-01-08T07:52:00,axn,34.90
2024-01-08T07:53:00,axn,34.69
2024-01-08T07:54:00,axn,35.23
2024-01-08T07:55:00,axn,34.49
2024-01-08T07:56:00,axn,50.03
2024-01-08T07:57:00,axn,35.50
2024-01-08T07:58:00,axn,34.63
2024-01-08T07:59:00,axn,35.42
2024-01-08T08:00:00,axn,34.36
2024-01-08T08:01:00,axn,36.26
2024-01-08T08:02:00,axn,39.95
2024-01-08T08:03:00,axn,41.72
2024-01-08T08:04:00,axn,40.69
2024-01-08T08:05:00,axn,40.57
2024-01-08T08:06:00,axn,39.51
2024-01-08T08:07:00,axn,40.37
2024-01-08T08:08:00,axn,40.34
2024-01-08T08:09:00,axn,59.60
2024-01-08T08:10:00,axn,40.17
2024-01-08T08:11:00,axn,40.45
2024-01-08T08:12:00,axn,40.01
2024-01-08T08:13:00,axn,40.70
2024-01-08T08:14:00,axn,40.38
2024-01-08T08:15:00,axn,41.08
2024-01-08T08:16:00,axn,41.00
2024-01-08T08:17:00,axn,40.91
2024-01-08T08:18:00,axn,40.64
2024-01-08T08:19:00,axn,40.81
2024-01-08T08:20:00,axn,40.32
2024-01-08T08:21:00,axn,41.21
2024-01-08T08:22:00,axn,40.38
2024-01-08T08:23:00,axn,40.09
2024-01-08T08:24:00,axn,41.65
2024-01-08T08:25:00,axn,41.23
2024-01-08T08:26:00,axn,40.17
2024-01-08T08:27:00,axn,40.32
2024-01-08T08:28:00,axn,42.04
2024-01-08T08:29:00,axn,40.75
2024-01-08T08:30:00,axn,40.66
2024-01-08T08:31:00,axn,40.58
2024-01-08T08:32:00,axn,41.05
2024-01-08T08:33:00,axn,41.34
2024-01-08T08:34:00,axn,41.94
2024-01-08T08:35:00,axn,42.68
2024-01-08T08:36:00,axn,42.29
2024-01-08T08:37:00,axn,42.32
2024-01-08T08:38:00,axn,41.49
2024-01-08T08:39:00,axn,41.81
2024-01-08T08:40:00,axn,41.93
2024-01-08T08:41:00,axn,41.85
2024-01-08T08:42:00,axn,41.70
2024-01-08T08:43:00,axn,41.84
2024-01-08T08:44:00,axn,41.80
2024-01-08T08:45:00,axn,41.63
2024-01-08T08:46:00,axn,42.08
2024-01-08T08:47:00,axn,42.35
2024-01-08T08:48:00,axn,43.56
2024-01-08T08:49:00,axn,43.07
2024-01-08T08:50:00,axn,42.88
2024-01-08T08:51:00,axn,41.66
2024-01-08T08:52:00,axn,41.50
2024-01-08T08:53:00,axn,41.41
2024-01-08T08:54:00,axn,43.25
2024-01-08T08:55:00,axn,43.93
2024-01-08T08:56:00,axn,43.95
2024-01-08T08:57:00,axn,42.56
2024-01-08T08:58:00,axn,42.75
2024-01-08T08:59:00,axn,42.27
2024-01-08T09:00:00,axn,42.82
2024-01-08T09:01:00,axn,42.97
2024-01-08T09:02:00,axn,44.08
2024-01-08T09:03:00,axn,43.45
2024-01-08T09:04:00,axn,42.40
2024-01-08T09:05:00,axn,43.29
2024-01-08T09:06:00,axn,41.97
2024-01-08T09:07:00,axn,41.95
2024-01-08T09:08:00,axn,42.75
2024-01-08T09:09:00,axn,42.25
2024-01-08T09:10:00,axn,43.18
2024-01-08T09:11:00,axn,41.81
2024-01-08T09:12:00,axn,41.83
2024-01-08T09:13:00,axn,43.09
2024-01-08T09:14:00,axn,42.68
2024-01-08T09:15:00,axn,42.50
2024-01-08T09:16:00,axn,41.98
2024-01-08T09:17:00,axn,41.80
2024-01-08T09:18:00,axn,41.50
2024-01-08T09:19:00,axn,52.93
2024-01-08T09:20:00,axn,52.32
2024-01-08T09:21:00,axn,51.95
2024-01-08T09:22:00,axn,51.84
2024-01-08T09:23:00,axn,52.04
2024-01-08T09:24:00,axn,52.42
2024-01-08T09:25:00,axn,42.62
2024-01-08T09:26:00,axn,42.61
2024-01-08T09:27:00,axn,44.36
2024-01-08T09:28:00,axn,43.32
2024-01-08T09:29:00,axn,59.77
2024-01-08T09:30:00,axn,51.02
2024-01-08T09:31:00,axn,52.07
2024-01-08T09:32:00,axn,53.27
2024-01-08T09:33:00,axn,51.76
2024-01-08T09:34:00,axn,52.04
2024-01-08T09:35:00,axn,51.89
2024-01-08T09:36:00,axn,52.10
2024-01-08T09:37:00,axn,52.21
2024-01-08T09:38:00,axn,52.21
2024-01-08T09:39:00,axn,51.90
2024-01-08T09:40:00,axn,51.50
2024-01-08T09:41:00,axn,51.66
2024-01-08T09:42:00,axn,51.80
2024-01-08T09:43:00,axn,51.68
2024-01-08T09:44:00,axn,51.58
2024-01-08T09:45:00,axn,50.93
2024-01-08T09:46:00,axn,52.58
2024-01-08T09:47:00,axn,51.98
2024-01-08T09:48:00,axn,50.86
2024-01-08T09:49:00,axn,53.02
2024-01-08T09:50:00,axn,50.95
2024-01-08T09:51:00,axn,51.38
2024-01-08T09:52:00,axn,51.38
2024-01-08T09:53:00,axn,51.26
2024-01-08T09:54:00,axn,50.85
2024-01-08T09:55:00,axn,50.75
2024-01-08T09:56:00,axn,50.13
2024-01-08T09:57:00,axn,50.70
2024-01-08T09:58:00,axn,50.42
2024-01-08T09:59:00,axn,51.22
2024-01-08T10:00:00,axn,51.80
2024-01-08T10:01:00,axn,50.66
2024-01-08T10:02:00,axn,50.51
2024-01-08T10:03:00,axn,50.42
2024-01-08T10:04:00,axn,50.39
2024-01-08T10:05:00,axn,50.29
2024-01-08T10:06:00,axn,50.97
2024-01-08T10:07:00,axn,51.32
2024-01-08T10:08:00,axn,52.55
2024-01-08T10:09:00,axn,51.97
2024-01-08T10:10:00,axn,51.06
2024-01-08T10:11:00,axn,51.39
2024-01-08T10:12:00,axn,52.91
2024-01-08T10:13:00,axn,54.33
2024-01-08T10:14:00,axn,53.50
2024-01-08T10:15:00,axn,52.73
2024-01-08T10:16:00,axn,52.25
2024-01-08T10:17:00,axn,52.38
2024-01-08T10:18:00,axn,52.20
2024-01-08T10:19:00,axn,51.84
2024-01-08T10:20:00,axn,52.98
2024-01-08T10:21:00,axn,54.24
2024-01-08T10:22:00,axn,55.50
2024-01-08T10:23:00,axn,53.65
2024-01-08T10:24:00,axn,54.31
2024-01-08T10:25:00,axn,54.11
2024-01-08T10:26:00,axn,53.98
2024-01-08T10:27:00,axn,53.93
2024-01-08T10:28:00,axn,54.05
2024-01-08T10:29:00,axn,53.51
2024-01-08T10:30:00,axn,53.57
2024-01-08T10:31:00,axn,53.90
2024-01-08T10:32:00,axn,54.52
2024-01-08T10:33:00,axn,54.61
2024-01-08T10:34:00,axn,54.63
2024-01-08T10:35:00,axn,54.98
2024-01-08T10:36:00,axn,54.95
2024-01-08T10:37:00,axn,54.86
2024-01-08T10:38:00,axn,55.66
2024-01-08T10:39:00,axn,55.56
2024-01-08T10:40:00,axn,56.25
2024-01-08T10:41:00,axn,55.20
2024-01-08T10:42:00,axn,56.05
2024-01-08T10:43:00,axn,55.09
2024-01-08T10:44:00,axn,54.89
2024-01-08T10:45:00,axn,54.79
2024-01-08T10:46:00,axn,54.57
2024-01-08T10:47:00,axn,54.83
2024-01-08T10:48:00,axn,56.11
2024-01-08T10:49:00,axn,55.01
2024-01-08T10:50:00,axn,55.04
2024-01-08T10:51:00,axn,56.19
2024-01-08T10:52:00,axn,54.55
2024-01-08T10:53:00,axn,55.01
2024-01-08T10:54:00,axn,54.39
2024-01-08T10:55:00,axn,54.02
2024-01-08T10:56:00,axn,53.98
2024-01-08T10:57:00,axn,53.51
2024-01-08T10:58:00,axn,53.39
2024-01-08T10:59:00,axn,53.51
2024-01-08T11:00:00,axn,58.15
2024-01-08T11:01:00,axn,73.22
2024-01-08T11:02:00,axn,73.56
2024-01-08T11:03:00,axn,74.12
2024-01-08T11:04:00,axn,68.95
2024-01-08T11:05:00,axn,69.86
2024-01-08T11:06:00,axn,68.44
2024-01-08T11:07:00,axn,54.48
2024-01-08T11:08:00,axn,54.80
2024-01-08T11:09:00,axn,54.59
2024-01-08T11:10:00,axn,54.17
2024-01-08T11:11:00,axn,57.40
2024-01-08T11:12:00,axn,57.48
2024-01-08T11:13:00,axn,54.80
2024-01-08T11:14:00,axn,54.96
2024-01-08T11:15:00,axn,55.87
2024-01-08T11:16:00,axn,56.15
2024-01-08T11:17:00,axn,55.70
2024-01-08T11:18:00,axn,55.24
2024-01-08T11:19:00,axn,55.11
2024-01-08T11:20:00,axn,55.11
2024-01-08T11:21:00,axn,54.21
2024-01-08T11:22:00,axn,55.01
2024-01-08T11:23:00,axn,55.25
2024-01-08T11:24:00,axn,54.15
2024-01-08T11:25:00,axn,54.03
2024-01-08T11:26:00,axn,54.50
2024-01-08T11:27:00,axn,54.24
2024-01-08T11:28:00,axn,54.03
2024-01-08T11:29:00,axn,53.98
2024-01-08T11:30:00,axn,54.03
2024-01-08T11:31:00,axn,54.15
2024-01-08T11:32:00,axn,59.86
2024-01-08T11:33:00,axn,59.74
2024-01-08T11:34:00,axn,59.71
2024-01-08T11:35:00,axn,59.16
2024-01-08T11:36:00,axn,53.20
2024-01-08T11:37:00,axn,53.39
2024-01-08T11:38:00,axn,53.43
2024-01-08T11:39:00,axn,53.93
2024-01-08T11:40:00,axn,54.55
2024-01-08T11:41:00,axn,54.44
2024-01-08T11:42:00,axn,54.80
2024-01-08T11:43:00,axn,53.76
2024-01-08T11:44:00,axn,54.17
2024-01-08T11:45:00,axn,54.15
2024-01-08T11:46:00,axn,54.40
2024-01-08T11:47:00,axn,53.68
2024-01-08T11:48:00,axn,54.11
2024-01-08T11:49:00,axn,56.18
2024-01-08T11:50:00,axn,54.40
2024-01-08T11:51:00,axn,54.35
2024-01-08T11:52:00,axn,54.42
2024-01-08T11:53:00,axn,54.41
2024-01-08T11:54:00,axn,54.14
2024-01-08T11:55:00,axn,54.04
2024-01-08T11:56:00,axn,54.06
2024-01-08T11:57:00,axn,53.85
2024-01-08T11:58:00,axn,53.96
2024-01-08T11:59:00,axn,54.41
2024-01-08T12:00:00,axn,54.01
2024-01-08T12:01:00,axn,54.08
2024-01-08T12:02:00,axn,54.19
2024-01-08T12:03:00,axn,55.04
2024-01-08T12:04:00,axn,54.33
2024-01-08T12:05:00,axn,54.27
2024-01-08T12:06:00,axn,54.23
2024-01-08T12:07:00,axn,55.17
2024-01-08T12:08:00,axn,55.20
2024-01-08T12:09:00,axn,55.50
2024-01-08T12:10:00,axn,55.67
2024-01-08T12:11:00,axn,55.26
2024-01-08T12:12:00,axn,55.33
2024-01-08T12:13:00,axn,55.16
2024-01-08T12:14:00,axn,55.99
2024-01-08T12:15:00,axn,55.91
2024-01-08T12:16:00,axn,55.50
2024-01-08T12:17:00,axn,56.18
2024-01-08T12:18:00,axn,56.07
2024-01-08T12:19:00,axn,55.68
2024-01-08T12:20:00,axn,55.13
2024-01-08T12:21:00,axn,54.89
2024-01-08T12:22:00,axn,55.29
2024-01-08T12:23:00,axn,56.67
2024-01-08T12:24:00,axn,56.08
2024-01-08T12:25:00,axn,56.31
2024-01-08T12:26:00,axn,56.26
2024-01-08T12:27:00,axn,56.95
2024-01-08T12:28:00,axn,56.43
2024-01-08T12:29:00,axn,54.99
2024-01-08T12:30:00,axn,55.68
2024-01-08T12:31:00,axn,55.72
2024-01-08T12:32:00,axn,55.95
2024-01-08T12:33:00,axn,55.28
2024-01-08T12:34:00,axn,55.21
2024-01-08T12:35:00,axn,54.71
2024-01-08T12:36:00,axn,54.53
2024-01-08T12:37:00,axn,54.50
2024-01-08T12:38:00,axn,54.17
2024-01-08T12:39:00,axn,56.47
2024-01-08T12:40:00,axn,53.76
2024-01-08T12:41:00,axn,53.35
2024-01-08T12:42:00,axn,45.03
2024-01-08T12:43:00,axn,44.43
2024-01-08T12:44:00,axn,45.32
2024-01-08T12:45:00,axn,45.24
2024-01-08T12:46:00,axn,44.91
2024-01-08T12:47:00,axn,45.05
2024-01-08T12:48:00,axn,46.69
2024-01-08T12:49:00,axn,47.40
2024-01-08T12:50:00,axn,46.40
2024-01-08T12:51:00,axn,45.02
2024-01-08T12:52:00,axn,44.94
2024-01-08T12:53:00,axn,45.01
2024-01-08T12:54:00,axn,45.17
2024-01-08T12:55:00,axn,48.53
2024-01-08T12:56:00,axn,46.15
2024-01-08T12:57:00,axn,46.83
2024-01-08T12:58:00,axn,48.39
2024-01-08T12:59:00,axn,46.71
2024-01-08T13:00:00,axn,45.92
2024-01-08T13:01:00,axn,46.09
2024-01-08T13:02:00,axn,45.90
2024-01-08T13:03:00,axn,45.34
2024-01-08T13:04:00,axn,45.41
2024-01-08T13:05:00,axn,45.49
2024-01-08T13:06:00,axn,46.05
2024-01-08T13:07:00,axn,45.34
2024-01-08T13:08:00,axn,45.37
2024-01-08T13:09:00,axn,45.91
2024-01-08T13:10:00,axn,45.03
2024-01-08T13:11:00,axn,44.37
2024-01-08T13:12:00,axn,55.64
2024-01-08T13:13:00,axn,55.58
2024-01-08T13:14:00,axn,55.79
2024-01-08T13:15:00,axn,56.15
2024-01-08T13:16:00,axn,55.37
2024-01-08T13:17:00,axn,45.34
2024-01-08T13:18:00,axn,45.93